Tracking 35331 objects as of 16-Sep-2026
HD Live streaming from Space Station
objects crossing your sky now

FREGAT DEB


FREGAT DEB is no longer on orbit


NORAD ID: 46237
Int'l Code: 2011-037JX
Launch date: July 18, 2011
Source: Commonwealth of Independent States (former USSR) (CIS)
Launch site: TYURATAM MISSILE AND SPACE COMPLEX (TTMTR)
Decay date: 2024-05-15

Note: This is SATELLITE DEBRIS
Your satellite tracking list
Your tracking list is empty




NASA's NSSDC Master Catalog

Two Line Element Set (TLE):
1 46237U 11037JX  24135.08370371  .16261653  00000-0  83363-1 0  9992
2 46237  51.2844  74.7333 0072179  45.5951 315.0921 15.71028861166137
Source of the keplerian elements: AFSPC